[[{"header":{"parameterUnit":"m.s-1","parameterCategory":2,"la1":30.2992,"la2":30.254,"lo1":-89.0895,"lo2":-89.0443,"dy":0.0025,"dx":0.0025,"nx":19,"ny":19,"refTime":"2026-03-20T21:00:00:Z","depth":"0","parameterNumber":2,"parameterNumberName":"U-component_of_CURRENTS"},"data":[0,0,0,-0.088,-0.0882,-0.0906,-0.0906,-0.0875,-0.0874,0,0,0,0,0,0,0,0,0,0,0,-0.0856,-0.0856,-0.088,-0.0882,-0.0906,-0.0906,-0.0875,-0.0874,0,0,0,0,0,0,0,0,0,0,0,-0.0855,-0.0856,-0.0856,-0.0882,-0.0906,-0.0906,-0.0875,-0.0865,0,0,0,0,0,0,0,0,0,0,-0.0846,-0.0835,-0.0856,-0.0856,-0.0883,-0.0906,-0.0906,-0.0865,-0.0865,-0.0855,0,-0.087,0,-0.0891,-0.0874,-0.0874,0,0,0,-0.0853,-0.0834,-0.0858,-0.0857,-0.0883,-0.0907,-0.0887,-0.0865,-0.0866,-0.0856,-0.087,-0.087,-0.0891,-0.0873,-0.0873,-0.0905,-0.0906,0,0,-0.0851,-0.0839,-0.0857,-0.0859,-0.0904,-0.0886,-0.0888,-0.0866,-0.0861,-0.087,-0.087,-0.089,-0.0873,-0.0873,-0.0905,-0.0906,0,0,0,-0.0867,-0.0838,-0.0862,-0.0859,-0.088,-0.0888,-0.089,-0.0862,-0.0875,-0.0869,-0.089,-0.0873,-0.0873,-0.0904,-0.0905,-0.0891,0,0,0,-0.0865,-0.085,-0.0862,-0.0852,-0.0881,-0.0879,-0.0885,-0.0876,-0.0875,-0.089,-0.0873,-0.0873,-0.0904,-0.0905,-0.089,-0.0872,0,0,0,-0.0852,-0.0849,-0.086,-0.0852,-0.088,-0.0881,-0.0891,-0.0876,-0.0889,-0.0874,-0.0873,-0.0904,-0.0905,-0.0889,-0.0871,-0.0838,0,0,0,-0.0826,-0.0846,-0.0859,-0.0867,-0.088,-0.0912,-0.0891,-0.0898,-0.0888,-0.0873,-0.0904,-0.0905,-0.0889,-0.0871,-0.0839,-0.0745,-0.0736,0,0,-0.0838,-0.0847,-0.0847,-0.0861,-0.0881,-0.0905,-0.0913,-0.0891,-0.0901,-0.09,-0.0901,-0.089,-0.0871,-0.0838,-0.0806,-0.0794,0,0,0,-0.0841,-0.084,-0.0849,-0.0856,-0.0889,-0.0899,-0.0907,-0.0919,-0.0919,-0.0908,-0.0916,-0.0905,-0.0884,-0.083,-0.0821,-0.07,-0.091,-0.091,-0.091,-0.0811,-0.082,-0.0814,-0.0829,-0.0858,-0.0895,-0.0903,-0.0922,-0.093,-0.0943,-0.0912,-0.0904,-0.0849,-0.0841,-0.0719,-0.0942,-0.0942,-0.0942,-0.0942,-0.0777,-0.0751,-0.0772,-0.0773,-0.0804,-0.0826,-0.0886,-0.09,-0.091,-0.0933,-0.0912,-0.0842,-0.083,-0.0703,-0.0941,-0.0941,-0.0941,-0.0941,-0.0941,-0.0707,-0.0703,-0.0703,-0.0707,-0.0728,-0.0782,-0.0801,-0.0857,-0.0884,-0.0879,-0.08,-0.0799,-0.0667,-0.086,-0.086,-0.086,-0.086,-0.086,-0.0859,-0.0633,-0.0643,-0.0621,-0.0642,-0.0648,-0.0681,-0.0753,-0.0765,-0.0767,-0.0771,-0.077,-0.0648,-0.0879,-0.0858,-0.0856,-0.0857,-0.0857,-0.0858,-0.0858,-0.0545,-0.0562,-0.054,-0.0532,-0.054,-0.0516,-0.0606,-0.0596,-0.0619,-0.0586,-0.0492,-0.0709,-0.0696,-0.0702,-0.0678,-0.063,-0.063,-0.063,-0.063,-0.0483,-0.0488,-0.0456,-0.0432,-0.0417,-0.0431,-0.0343,-0.0377,-0.0369,-0.0323,-0.0332,-0.0319,-0.0334,-0.0299,-0.0315,-0.0284,-0.0137,-0.0136,-0.0135,-0.0423,-0.0433,-0.0381,-0.0367,-0.0346,-0.031,-0.0182,-0.0127,-0.0124,-0.0107,-0.018,-0.02,-0.0179,-0.0212,-0.016,-0.0192,-0.0142,0,0]},{"header":{"parameterUnit":"m.s-1","parameterCategory":2,"la1":30.2992,"la2":30.254,"lo1":-89.0895,"lo2":-89.0443,"dy":0.0025,"dx":0.0025,"nx":19,"ny":19,"refTime":"2026-03-20T21:00:00:Z","depth":"0","parameterNumber":3,"parameterNumberName":"V-component_of_CURRENTS"},"data":[0,0,0,-0.038,-0.0381,-0.0441,-0.0441,-0.0415,-0.0415,0,0,0,0,0,0,0,0,0,0,0,-0.0365,-0.0366,-0.038,-0.0381,-0.0441,-0.0441,-0.0415,-0.0415,0,0,0,0,0,0,0,0,0,0,0,-0.0365,-0.0366,-0.0367,-0.0381,-0.0441,-0.0441,-0.0415,-0.0396,0,0,0,0,0,0,0,0,0,0,-0.0351,-0.0342,-0.0366,-0.0367,-0.0382,-0.044,-0.0441,-0.0396,-0.0397,-0.0359,0,-0.0377,0,-0.039,-0.0411,-0.041,0,0,0,-0.0382,-0.0342,-0.0366,-0.0367,-0.0382,-0.044,-0.0414,-0.0397,-0.0398,-0.0359,-0.0377,-0.0377,-0.0389,-0.041,-0.041,-0.0436,-0.0437,0,0,-0.0378,-0.0363,-0.0366,-0.0367,-0.0407,-0.0412,-0.0416,-0.0399,-0.0396,-0.0377,-0.0377,-0.0389,-0.041,-0.0409,-0.0435,-0.0436,0,0,0,-0.0368,-0.0361,-0.0388,-0.0367,-0.0384,-0.0414,-0.0418,-0.0397,-0.0409,-0.0377,-0.0389,-0.0409,-0.0409,-0.0434,-0.0436,-0.0508,0,0,0,-0.0366,-0.0355,-0.0386,-0.0376,-0.0385,-0.0402,-0.0416,-0.0411,-0.0409,-0.0389,-0.0409,-0.0408,-0.0434,-0.0435,-0.0504,-0.0514,0,0,0,-0.0361,-0.0354,-0.0367,-0.0375,-0.0402,-0.0403,-0.0415,-0.0412,-0.0416,-0.041,-0.0408,-0.0433,-0.0435,-0.0501,-0.0509,-0.053,0,0,0,-0.0335,-0.037,-0.0367,-0.0409,-0.0401,-0.0463,-0.0415,-0.0436,-0.0437,-0.0409,-0.0434,-0.0435,-0.05,-0.0506,-0.0527,-0.0559,-0.0574,0,0,-0.0369,-0.0373,-0.0402,-0.0401,-0.0474,-0.0455,-0.0519,-0.0486,-0.0451,-0.0429,-0.0431,-0.0505,-0.0509,-0.0529,-0.0661,-0.0673,0,0,0,-0.0406,-0.0426,-0.0452,-0.0487,-0.0523,-0.0557,-0.0539,-0.0538,-0.0535,-0.046,-0.0521,-0.0521,-0.0531,-0.0546,-0.0556,-0.0467,-0.0444,-0.0443,-0.0443,-0.0442,-0.0465,-0.0517,-0.0554,-0.0587,-0.0619,-0.0642,-0.0632,-0.0592,-0.061,-0.0593,-0.0673,-0.0692,-0.0699,-0.0609,-0.0619,-0.0619,-0.0619,-0.0619,-0.0504,-0.0521,-0.0556,-0.061,-0.0645,-0.0687,-0.0721,-0.071,-0.0725,-0.0687,-0.0694,-0.0638,-0.0714,-0.0614,-0.0624,-0.0624,-0.0623,-0.0622,-0.0622,-0.0519,-0.0521,-0.056,-0.0622,-0.0681,-0.0726,-0.0769,-0.0781,-0.0771,-0.0785,-0.0772,-0.0771,-0.0667,-0.0785,-0.0785,-0.0785,-0.0785,-0.0785,-0.0785,-0.0495,-0.0531,-0.057,-0.0637,-0.0683,-0.0741,-0.0796,-0.0814,-0.0843,-0.084,-0.0841,-0.0694,-0.0722,-0.0698,-0.0788,-0.0788,-0.0787,-0.0787,-0.0787,-0.0468,-0.0486,-0.0555,-0.0604,-0.0705,-0.0749,-0.0811,-0.0871,-0.0896,-0.0916,-0.0802,-0.0869,-0.0838,-0.083,-0.0808,-0.0921,-0.0921,-0.0921,-0.0921,-0.0432,-0.0451,-0.0528,-0.0605,-0.0683,-0.0748,-0.0793,-0.087,-0.088,-0.0874,-0.0807,-0.0776,-0.0774,-0.0735,-0.0729,-0.0703,-0.0787,-0.0787,-0.0786,-0.0401,-0.0445,-0.0483,-0.0574,-0.0669,-0.0725,-0.075,-0.0785,-0.0835,-0.0769,-0.0678,-0.0684,-0.0623,-0.0627,-0.0552,-0.0551,-0.0503,0,0]}],[{"header":{"parameterUnit":"m.s-1","parameterCategory":2,"la1":30.2992,"la2":30.254,"lo1":-89.0895,"lo2":-89.0443,"dy":0.0025,"dx":0.0025,"nx":19,"ny":19,"refTime":"2026-03-20T21:00:00:Z","depth":"2","parameterNumber":2,"parameterNumberName":"U-component_of_CURRENTS"},"data":[0,0,0,-0.2795,-0.2792,-0.2652,-0.2652,-0.2433,-0.2431,0,0,0,0,0,0,0,0,0,0,0,-0.2827,-0.2826,-0.2795,-0.2792,-0.2652,-0.2652,-0.2433,-0.2431,0,0,0,0,0,0,0,0,0,0,0,-0.2828,-0.2826,-0.2825,-0.2792,-0.2653,-0.2652,-0.2434,-0.2546,0,0,0,0,0,0,0,0,0,0,-0.2685,-0.2733,-0.2827,-0.2825,-0.2791,-0.2653,-0.2651,-0.2552,-0.2539,-0.2489,0,-0.246,0,-0.2451,-0.2417,-0.2416,0,0,0,-0.2779,-0.2744,-0.2703,-0.2825,-0.279,-0.2653,-0.2712,-0.2545,-0.253,-0.2472,-0.2457,-0.245,-0.2447,-0.2415,-0.2414,-0.2176,-0.2175,0,0,-0.2787,-0.2803,-0.2713,-0.2694,-0.2743,-0.2716,-0.2708,-0.2536,-0.2517,-0.2457,-0.2445,-0.2444,-0.2414,-0.2412,-0.2177,-0.2176,0,0,0,-0.2818,-0.2809,-0.2772,-0.2702,-0.2685,-0.2713,-0.2702,-0.2525,-0.2511,-0.2443,-0.2441,-0.2413,-0.241,-0.2178,-0.2176,-0.2186,0,0,0,-0.2822,-0.2828,-0.2776,-0.2784,-0.2689,-0.2612,-0.2695,-0.2523,-0.2504,-0.2442,-0.2412,-0.2408,-0.2179,-0.2177,-0.2188,-0.2173,0,0,0,-0.2836,-0.283,-0.281,-0.2786,-0.2733,-0.2614,-0.2591,-0.2519,-0.2503,-0.2416,-0.2407,-0.218,-0.2177,-0.219,-0.2176,-0.2086,0,0,0,-0.2863,-0.2804,-0.281,-0.2731,-0.2734,-0.261,-0.2592,-0.2498,-0.2423,-0.2411,-0.2179,-0.2176,-0.2191,-0.2178,-0.2089,-0.1876,-0.1845,0,0,-0.2803,-0.2798,-0.2748,-0.275,-0.2634,-0.2629,-0.25,-0.241,-0.2367,-0.2233,-0.2227,-0.2187,-0.2176,-0.2086,-0.1738,-0.1711,0,0,0,-0.2738,-0.2701,-0.2663,-0.26,-0.2531,-0.2466,-0.2393,-0.2353,-0.2245,-0.2313,-0.2135,-0.2126,-0.207,-0.1947,-0.1924,-0.2165,-0.2165,-0.2166,-0.2166,-0.266,-0.2629,-0.2542,-0.2489,-0.2422,-0.234,-0.2274,-0.22,-0.2179,-0.2136,-0.2098,-0.1982,-0.185,-0.1831,-0.2064,-0.2064,-0.2064,-0.2064,-0.2064,-0.2555,-0.249,-0.247,-0.2385,-0.2333,-0.2243,-0.2146,-0.2132,-0.2006,-0.2039,-0.1985,-0.1917,-0.1807,-0.2063,-0.2063,-0.2063,-0.2063,-0.2063,-0.2063,-0.2482,-0.245,-0.2421,-0.2326,-0.2252,-0.2191,-0.2069,-0.2029,-0.1985,-0.1939,-0.1747,-0.1745,-0.1984,-0.1899,-0.1898,-0.1898,-0.1898,-0.1897,-0.1897,-0.2413,-0.2384,-0.2316,-0.2251,-0.2204,-0.212,-0.2013,-0.1915,-0.1751,-0.1698,-0.1695,-0.1925,-0.193,-0.197,-0.189,-0.1891,-0.1892,-0.1893,-0.1893,-0.2263,-0.2285,-0.2177,-0.2129,-0.204,-0.1897,-0.185,-0.1581,-0.1488,-0.1357,-0.1532,-0.1543,-0.1502,-0.1517,-0.1543,-0.1357,-0.1357,-0.1357,-0.1357,-0.2171,-0.2172,-0.2024,-0.1942,-0.1856,-0.178,-0.1452,-0.1218,-0.1127,-0.1072,-0.1085,-0.1099,-0.1125,-0.1067,-0.1092,-0.1112,-0.0813,-0.0813,-0.0812,-0.205,-0.203,-0.1885,-0.1837,-0.1769,-0.1609,-0.1237,-0.09,-0.0743,-0.08,-0.1088,-0.1302,-0.1359,-0.1386,-0.133,-0.1358,-0.1403,0,0]},{"header":{"parameterUnit":"m.s-1","parameterCategory":2,"la1":30.2992,"la2":30.254,"lo1":-89.0895,"lo2":-89.0443,"dy":0.0025,"dx":0.0025,"nx":19,"ny":19,"refTime":"2026-03-20T21:00:00:Z","depth":"2","parameterNumber":3,"parameterNumberName":"V-component_of_CURRENTS"},"data":[0,0,0,0.0401,0.0403,0.0524,0.0524,0.0748,0.075,0,0,0,0,0,0,0,0,0,0,0,0.0351,0.0351,0.0401,0.0403,0.0524,0.0524,0.0748,0.075,0,0,0,0,0,0,0,0,0,0,0,0.0351,0.0351,0.0351,0.0403,0.0523,0.0525,0.0747,0.0645,0,0,0,0,0,0,0,0,0,0,0.0521,0.046,0.0351,0.0351,0.0404,0.0523,0.0525,0.0639,0.0651,0.0706,0,0.0701,0,0.0726,0.0764,0.0765,0,0,0,0.0427,0.045,0.0476,0.0351,0.0405,0.0523,0.0476,0.0646,0.0659,0.0722,0.0704,0.0713,0.073,0.0766,0.0767,0.0935,0.0935,0,0,0.042,0.039,0.0466,0.0483,0.0408,0.0472,0.0479,0.0653,0.0661,0.0705,0.0718,0.0734,0.0767,0.0769,0.0935,0.0935,0,0,0,0.0385,0.0385,0.0407,0.0474,0.0488,0.0475,0.0483,0.0654,0.0657,0.0721,0.0736,0.0769,0.0771,0.0935,0.0935,0.0802,0,0,0,0.0382,0.0363,0.0403,0.0389,0.0483,0.0564,0.048,0.0645,0.0666,0.0735,0.0769,0.0773,0.0934,0.0935,0.0805,0.0741,0,0,0,0.035,0.0361,0.0364,0.0387,0.0428,0.0561,0.0577,0.065,0.0675,0.0765,0.0774,0.0934,0.0935,0.0808,0.0747,0.0697,0,0,0,0.0333,0.0323,0.0362,0.0366,0.0427,0.0499,0.0576,0.0644,0.0712,0.077,0.0934,0.0935,0.0808,0.075,0.0701,0.0588,0.0562,0,0,0.0311,0.032,0.0324,0.0361,0.0395,0.0486,0.0545,0.0656,0.0745,0.0886,0.089,0.0804,0.0747,0.0698,0.0621,0.0593,0,0,0,0.0311,0.03,0.0324,0.0348,0.0421,0.048,0.0595,0.0652,0.0753,0.0785,0.0853,0.0823,0.0794,0.0737,0.0716,0.0938,0.0938,0.0938,0.0937,0.0214,0.0257,0.0265,0.0321,0.0371,0.0486,0.0535,0.064,0.0731,0.075,0.075,0.0671,0.061,0.0593,0.0797,0.0797,0.0796,0.0796,0.0795,0.0151,0.0143,0.0207,0.0215,0.0289,0.0337,0.0483,0.0534,0.0605,0.0691,0.067,0.0645,0.0561,0.0786,0.0788,0.0789,0.079,0.0791,0.0791,0.0052,0.006,0.0061,0.0083,0.0117,0.0228,0.0269,0.0379,0.0475,0.0463,0.0435,0.0436,0.0561,0.0455,0.0455,0.0454,0.0454,0.0453,0.0453,-0.0058,-0.0036,-0.0079,-0.0043,-0.0036,0.0014,0.0136,0.0165,0.0214,0.0289,0.0289,0.0557,0.0568,0.0545,0.0445,0.0447,0.0448,0.0448,0.0449,-0.0158,-0.0178,-0.022,-0.0234,-0.018,-0.0147,-0.0053,-0.005,-0.0018,-0.0037,0.0201,0.021,0.0243,0.0262,0.0234,0.0059,0.0059,0.0059,0.0059,-0.0248,-0.0249,-0.0314,-0.0319,-0.0286,-0.0203,-0.0228,-0.0105,-0.0004,0.0151,0.0149,0.0215,0.0225,0.0266,0.0285,0.0262,0.0095,0.0096,0.0096,-0.0301,-0.0316,-0.0363,-0.0362,-0.0314,-0.0267,-0.0286,0.0028,0.036,0.0115,0.0331,0.0027,0.0118,0.0138,0.0203,0.0231,0.0195,0,0]}],[{"header":{"parameterUnit":"m.s-1","parameterCategory":2,"la1":30.2992,"la2":30.254,"lo1":-89.0895,"lo2":-89.0443,"dy":0.0025,"dx":0.0025,"nx":19,"ny":19,"refTime":"2026-03-20T21:00:00:Z","depth":"4","parameterNumber":2,"parameterNumberName":"U-component_of_CURRENTS"},"data":[0,0,0,-0.0859,-0.0862,-0.1012,-0.1013,-0.1167,-0.1168,0,0,0,0,0,0,0,0,0,0,0,-0.0827,-0.0828,-0.0859,-0.0862,-0.1012,-0.1013,-0.1166,-0.1168,0,0,0,0,0,0,0,0,0,0,0,-0.0826,-0.0827,-0.0829,-0.0862,-0.1012,-0.1013,-0.1166,-0.1068,0,0,0,0,0,0,0,0,0,0,-0.093,-0.0891,-0.0827,-0.0829,-0.0863,-0.1012,-0.1014,-0.1064,-0.1074,-0.1079,0,-0.1105,0,-0.112,-0.1175,-0.1175,0,0,0,-0.0887,-0.0883,-0.092,-0.0829,-0.0864,-0.1012,-0.0952,-0.1071,-0.1082,-0.1092,-0.1108,-0.1113,-0.1122,-0.1175,-0.1176,-0.1268,-0.1268,0,0,-0.0879,-0.0857,-0.0913,-0.0927,-0.0906,-0.0947,-0.0956,-0.1078,-0.1091,-0.1108,-0.1117,-0.1125,-0.1176,-0.1177,-0.1267,-0.1268,0,0,0,-0.0838,-0.0851,-0.0888,-0.0921,-0.0941,-0.095,-0.0961,-0.1087,-0.1098,-0.1118,-0.1127,-0.1177,-0.1178,-0.1267,-0.1268,-0.1257,0,0,0,-0.0834,-0.0826,-0.0884,-0.0873,-0.0939,-0.1018,-0.0967,-0.1091,-0.1104,-0.1126,-0.1177,-0.1179,-0.1267,-0.1267,-0.1256,-0.125,0,0,0,-0.0819,-0.0823,-0.0842,-0.0871,-0.0923,-0.1016,-0.1037,-0.1095,-0.1108,-0.1175,-0.1179,-0.1267,-0.1267,-0.1256,-0.125,-0.1186,0,0,0,-0.0791,-0.0814,-0.0842,-0.0873,-0.0921,-0.0988,-0.1037,-0.112,-0.118,-0.1177,-0.1267,-0.1268,-0.1256,-0.125,-0.1187,-0.1004,0,0,0,-0.0798,-0.0815,-0.0832,-0.0859,-0.0906,-0.0969,-0.1027,-0.1139,-0.1185,-0.1228,-0.1231,-0.1257,-0.125,-0.1186,-0.1037,0,0,0,0,-0.0819,-0.083,-0.0849,-0.0889,-0.0944,-0.1007,-0.1096,-0.1138,-0.123,-0.1217,-0.127,-0.1267,-0.1226,-0.1124,-0.127,-0.127,-0.127,-0.127,-0.127,-0.0789,-0.0825,-0.0852,-0.0903,-0.0949,-0.1046,-0.1101,-0.1176,-0.1216,-0.1262,-0.1268,-0.1228,-0.1124,-0.1281,-0.1281,-0.1281,-0.1281,-0.1281,-0.128,-0.0779,-0.0792,-0.0847,-0.0889,-0.0962,-0.1021,-0.1121,-0.1177,-0.1217,-0.1272,-0.1232,-0.1135,-0.128,-0.128,-0.128,-0.128,-0.128,-0.128,-0.128,-0.0749,-0.0759,-0.08,-0.0855,-0.0928,-0.1017,-0.1047,-0.1153,-0.1206,-0.1202,-0.1055,-0.1203,-0.1189,-0.1171,-0.117,-0.117,-0.117,-0.117,-0.117,-0.0699,-0.0735,-0.074,-0.0816,-0.0843,-0.0905,-0.102,-0.1021,-0.1092,-0.1019,-0.1189,-0.119,-0.1194,-0.1182,-0.1165,-0.1166,-0.1166,-0.1167,-0.1167,-0.0641,-0.0671,-0.0654,-0.0674,-0.071,-0.0755,-0.0867,-0.0841,-0.0805,-0.0747,-0.0897,-0.0911,-0.0885,-0.0895,-0.0872,-0.0763,-0.076,-0.0758,0,-0.0593,-0.0611,-0.0561,-0.0541,-0.0535,-0.0651,-0.0573,-0.0595,-0.0657,-0.0643,-0.081,-0.0984,-0.0993,-0.097,-0.0975,-0.095,0,0,0,-0.0538,-0.0538,-0.0475,-0.0471,-0.0465,-0.0473,-0.0549,-0.052,-0.0651,-0.056,-0.0695,-0.0711,-0.0963,-0.1151,-0.1145,-0.115,-0.1129,0,0]},{"header":{"parameterUnit":"m.s-1","parameterCategory":2,"la1":30.2992,"la2":30.254,"lo1":-89.0895,"lo2":-89.0443,"dy":0.0025,"dx":0.0025,"nx":19,"ny":19,"refTime":"2026-03-20T21:00:00:Z","depth":"4","parameterNumber":3,"parameterNumberName":"V-component_of_CURRENTS"},"data":[0,0,0,-0.0511,-0.0511,-0.0541,-0.0541,-0.0552,-0.0552,0,0,0,0,0,0,0,0,0,0,0,-0.0509,-0.051,-0.0511,-0.0511,-0.0541,-0.0541,-0.0552,-0.0552,0,0,0,0,0,0,0,0,0,0,0,-0.0509,-0.051,-0.0511,-0.0512,-0.0541,-0.0541,-0.0552,-0.0535,0,0,0,0,0,0,0,0,0,0,-0.0509,-0.0512,-0.051,-0.0511,-0.0512,-0.0541,-0.0541,-0.0534,-0.0536,-0.0533,0,-0.0551,0,-0.055,-0.0553,-0.0553,0,0,0,-0.0506,-0.0511,-0.0521,-0.0511,-0.0512,-0.0541,-0.0526,-0.0535,-0.0537,-0.0535,-0.0551,-0.0552,-0.0551,-0.0553,-0.0553,-0.0542,-0.0542,0,0,-0.0504,-0.0509,-0.052,-0.0522,-0.0537,-0.0525,-0.0527,-0.0537,-0.0544,-0.0551,-0.0552,-0.0551,-0.0553,-0.0553,-0.0542,-0.0542,0,0,0,-0.0503,-0.0508,-0.0518,-0.0522,-0.0529,-0.0526,-0.0528,-0.0544,-0.0549,-0.0552,-0.0551,-0.0553,-0.0553,-0.0542,-0.0542,-0.0575,0,0,0,-0.0502,-0.0508,-0.0517,-0.0519,-0.0529,-0.054,-0.0535,-0.0548,-0.0549,-0.0551,-0.0553,-0.0553,-0.0543,-0.0542,-0.0575,-0.0585,0,0,0,-0.0505,-0.0507,-0.0517,-0.052,-0.0534,-0.0539,-0.0544,-0.0548,-0.0548,-0.0553,-0.0553,-0.0543,-0.0542,-0.0575,-0.0584,-0.0534,0,0,0,-0.0499,-0.051,-0.0517,-0.054,-0.0534,-0.0547,-0.0544,-0.0553,-0.0559,-0.0553,-0.0543,-0.0542,-0.0574,-0.0583,-0.0535,-0.044,0,0,0,-0.0502,-0.051,-0.0525,-0.0532,-0.0562,-0.0541,-0.0557,-0.0564,-0.0547,-0.0537,-0.0537,-0.0575,-0.0584,-0.0534,-0.0414,0,0,0,0,-0.052,-0.053,-0.0542,-0.0567,-0.0578,-0.0587,-0.0579,-0.0565,-0.0555,-0.0549,-0.0556,-0.056,-0.0528,-0.0473,-0.054,-0.054,-0.054,-0.054,-0.054,-0.0513,-0.0536,-0.0567,-0.0596,-0.061,-0.061,-0.0605,-0.0579,-0.0569,-0.0558,-0.0574,-0.0541,-0.0485,-0.0559,-0.056,-0.056,-0.056,-0.056,-0.056,-0.0525,-0.0553,-0.0589,-0.0627,-0.0651,-0.0662,-0.0635,-0.0619,-0.0573,-0.0575,-0.0542,-0.0497,-0.0563,-0.0562,-0.0562,-0.0561,-0.0561,-0.0561,-0.0561,-0.0529,-0.0548,-0.058,-0.0643,-0.0684,-0.0699,-0.0679,-0.0657,-0.0595,-0.0578,-0.0466,-0.0538,-0.0547,-0.0543,-0.0543,-0.0543,-0.0543,-0.0543,-0.0543,-0.0526,-0.0555,-0.0603,-0.0663,-0.0708,-0.0732,-0.0698,-0.0631,-0.0567,-0.0476,-0.0567,-0.0534,-0.0534,-0.0544,-0.054,-0.0541,-0.0541,-0.0541,-0.0541,-0.0533,-0.0556,-0.0608,-0.0658,-0.0735,-0.0736,-0.0713,-0.0529,-0.0435,-0.0325,-0.0401,-0.0408,-0.0374,-0.0378,-0.0381,-0.0329,-0.0328,-0.0327,0,-0.0541,-0.0556,-0.0625,-0.0683,-0.0715,-0.0735,-0.0567,-0.0466,-0.0367,-0.0375,-0.0456,-0.0554,-0.0554,-0.053,-0.0531,-0.0542,0,0,0,-0.0551,-0.0564,-0.061,-0.0672,-0.0715,-0.058,-0.0518,-0.0437,-0.0405,-0.0231,-0.0295,-0.0303,-0.0443,-0.0533,-0.0497,-0.0498,-0.051,0,0]}]]